Presure
95 122 118 117 126 129 125 153 112 163 103 149 96 163 90 148 110 131 109 120 132 145 132 154 169 171 139 220 253 132 126 162 167 146 161 156 141 169 154 143 158 158 141
121 118 123 108 118 113 150 135 109 160 179 170 125 152 126 111 116 119 123 124 128 152 125 162 161 191 142 169 244 145 128 160 159 161 151 145 151 162 148 150 149 162 149
127 119 121 113 124 143 173 131 111 179 162 159 158 162 169 115 129 127 125 116 137 155 136 122 137 155 200 154 209 193 169 168 159 155 158 154 153 161 156 151 155 164 144
130 116 121 126 136 140 135 156 193 171 156 160 154 165 170 144 120 118 133 135 127 122 161 154 169 164 171 185 174 163 184 165 158 163 160 157 146 151 166 149 156 147 171
129 123 127 135 131 143 171 123 144 127 152 164 171 178 130 136 118 125 133 129 113 156 174 164 141 126 172 172 170 157 142 155 155 160 170 170 153 153 151 152 161 144 147
116 133 139 139 135 170 162 146 165 158 126 109 143 164 144 119 130 131 138 120 122 168 181 161 156 124 164 163 167 173 136 122 160 157 191 149 160 150 155 160 151 151 136
136 141 137 143 174 169 146 144 179 143 147 130 132 101 127 116 125 166 156 181 206 169 170 172 152 144 152 169 169 165 169 148 127 159 165 161 153 160 153 165 150 157 147
143 156 150 159 173 142 159 161 149 133 118 130 117 120 142 135 188 180 193 139 139 174 151 176 154 123 155 131 153 164 166 167 143 140 162 138 159 164 155 163 149 170 139
140 153 172 173 127 137 151 145 115 141 154 140 160 163 167 205 187 180 185 174 103 170 162 171 161 140 119 148 153 139 171 162 168 145 150 160 167 176 162 159 151 152 160
154 175 174 134 125 152 126 130 149 149 137 162 171 190 184 174 209 177 182 166 194 200 185 183 191 187 175 163 119 151 147 157 170 175 178 126 186 176 161 159 161 153 170
223 212 143 130 126 131 142 145 153 164 154 184 192 167 204 163 213 221 177 148 174 175 152 168 156 117 186 172 122 132 131 130 172 180 185 165 126 160 168 162 156 155 159
123 140 125 142 135 148 155 198 212 202 192 170 153 170 180 179 166 154 152 149 150 161 139 169 157 165 255 204 122 129 145 129 131 128 198 180 148 126 156 160 161 159 154
150 135 132 151 153 212 210 196 186 203 165 159 155 149 151 153 145 166 161 149 132 152 112 161 153 176 158 192 238 187 126 128 126 134 131 196 177 171 191 168 162 157 159
138 145 151 217 201 178 167 162 154 166 162 148 153 156 176 162 157 127 161 142 155 136 127 133 117 147 166 132 135 270 261 145 210 180 133 164 199 180 162 176 162 157 161
175 214 194 180 163 169 153 154 162 165 169 161 130 145 135 134 144 138 151 152 151 150 149 158 147 127 122 154 143 148 116 135 229 212 127 127 179 172 175 179 155 141 152
206 180 159 154 161 173 170 157 159 145 161 155 156 139 137 146 155 149 118 148 146 149 136 142 148 161 123 121 127 133 179 224 126 118 141 145 138 194 172 178 173 166 169
156 176 178 180 176 159 156 152 153 152 158 137 142 138 146 152 158 169 151 152 164 159 140 146 139 148 156 129 125 175 112 161 210 276 182 218 202 138 188 137 178 172 182
150 158 152 146 155 155 157 153 148 151 142 159 136 142 160 124 154 145 166 137 162 162 151 133 122 152 166 179 225 188 169 133 144 197 332 269 212 206 146 163 174 165 169
140 139 152 154 133 162 147 156 151 147 138 133 155 125 139 151 155 145 127 142 152 151 145 138 146 149 158 174 194 134 168 161 165 123 215 133 238 222 210 141 158 155 165
134 145 142 181 122 152 120 122 117 120 122 120 134 145 127 148 117 178 149 133 131 137 143 150 114 113 178 134 152 180 165 167 156 154 201 199 123 118 286 201 150 157 159
147 143 135 121 131 123 142 118 115 148 135 127 145 141 114 127 162 108 105 184 136 126 139 158 152 186 170 153 135 121 150 153 123 171 159 198 196 134 332 137 160 149 132
135 139 134 126 121 126 104 116 122 109 131 144 153 136 99 170 179 179 167 138 144 149 151 138 166 154 142 166 186 145 137 201 169 166 177 181 182 198 185 314 332 187 142
119 119 111 108 117 126 147 131 136 116 118 132 129 161 165 173 169 159 150 142 144 153 153 141 147 187 166 165 163 159 192 199 147 162 143 162 198 229 214 224 289 325 168
122 126 124 124 122 133 144 159 125 152 121 156 168 174 145 189 160 170 187 182 146 146 151 139 137 202 173 150 171 143 164 154 149 165 189 141 191 233 213 228 230 233 339
101 98 134 118 107 138 133 133 135 154 163 86 171 183 110 159 109 178 159 155 148 136 147 176 210 192 170 144 229 131 181 192 187 163 234 203 138 225 208 250 219 235 230
124 125 134 135 131 118 137 132 120 139 149 170 169 161 189 192 180 146 143 136 166 146 163 163 157 186 167 113 127 146 189 194 199 203 161 165 199 136 186 219 208 198 217
Wind_Speed
19 21 19 21 31 33 24 43 20 41 19 32 18 33 24 31 16 29 26 30 34 36 31 37 39 33 25 21 20 21 24 14 20 13 16 15 16 14 13 17 18 20 15
23 20 26 17 19 15 43 23 14 35 37 32 17 31 21 15 24 21 24 27 28 36 29 33 34 29 27 20 20 18 22 14 16 14 14 16 19 13 14 15 16 18 21
23 20 23 17 25 43 32 28 17 31 29 26 28 30 31 20 23 23 24 20 31 33 28 25 28 29 21 22 30 24 16 14 15 15 12 12 13 15 14 17 15 16 21
24 17 22 27 34 38 31 31 25 24 25 28 27 25 28 24 16 21 26 27 26 24 30 26 25 27 26 23 19 19 20 16 17 15 11 9 16 13 14 13 13 18 19
20 19 26 30 26 35 29 20 23 18 26 26 23 29 18 22 19 22 25 24 22 28 28 23 22 29 25 24 18 18 18 17 18 16 9 7 12 11 12 11 16 17 19
13 26 31 30 27 29 27 22 27 26 20 17 18 20 21 18 23 24 29 17 21 25 17 23 16 25 19 20 19 18 15 22 13 13 10 15 8 12 11 10 14 15 17
24 31 24 30 29 26 20 21 27 22 16 17 18 23 18 19 19 28 28 25 17 21 18 15 13 16 19 20 14 15 16 14 21 11 9 5 11 6 9 12 12 13 14
26 35 30 31 22 18 21 21 15 17 21 18 19 19 24 22 26 23 22 17 18 14 19 15 17 16 22 21 19 13 14 12 17 18 2 20 8 4 6 9 9 10 11
19 30 19 22 13 16 15 15 17 17 21 21 23 24 27 21 20 18 17 17 17 16 18 15 16 12 16 19 19 22 9 13 11 11 9 7 5 3 1 5 6 7 6
29 22 21 11 15 15 17 19 20 20 18 24 24 22 16 15 14 16 16 17 12 9 10 14 19 19 17 18 18 18 22 17 9 10 4 17 3 3 2 1 4 4 6
14 12 9 14 17 17 18 19 19 20 20 18 15 12 15 15 15 18 13 15 20 21 21 22 24 18 21 17 19 20 23 22 9 7 4 5 15 5 7 3 1 3 4
16 12 16 17 15 18 20 13 10 9 11 10 12 13 14 14 14 16 16 16 15 19 20 25 19 26 19 17 20 19 15 19 20 15 4 7 9 13 1 6 5 4 4
10 13 15 14 17 4 5 6 7 11 8 9 12 15 15 14 13 13 11 10 20 17 17 27 28 30 28 25 14 15 17 22 18 21 19 7 9 6 13 12 6 7 6
10 12 13 3 3 3 2 5 5 9 7 8 9 8 13 11 9 23 14 10 16 15 20 19 19 28 32 21 23 12 14 12 16 9 15 10 12 10 7 8 14 7 9
8 6 4 4 3 5 3 5 7 7 7 7 14 8 12 16 13 13 17 18 19 21 20 26 22 21 23 26 23 28 14 15 21 21 17 14 12 9 14 15 7 8 4
9 5 1 1 3 7 6 8 8 7 10 8 8 9 9 12 13 17 20 21 22 16 16 21 26 33 21 20 23 19 35 41 10 10 17 11 24 20 14 17 18 15 19
7 6 7 7 7 8 9 8 8 9 10 10 9 10 14 20 23 18 22 21 23 24 15 23 24 27 31 22 22 35 13 24 38 14 16 28 26 24 25 16 21 18 20
8 8 8 8 9 9 6 7 9 9 11 12 17 17 20 18 20 22 19 22 22 24 20 18 12 34 33 31 34 24 34 20 22 37 19 17 28 30 29 19 20 18 20
9 6 7 6 8 8 10 10 10 8 17 15 18 18 23 18 21 22 30 24 22 23 29 32 35 32 34 33 33 16 28 30 33 10 37 12 14 23 33 20 20 12 20
7 7 5 6 9 11 12 15 11 18 21 17 24 19 15 26 15 25 20 26 29 30 27 29 17 21 38 25 31 34 25 32 32 29 39 35 13 13 25 35 26 23 23
7 4 8 13 12 14 13 15 11 13 22 27 19 21 8 28 24 11 17 22 25 27 26 28 29 40 40 32 25 22 30 29 22 36 28 45 39 19 21 22 30 26 14
2 4 6 13 7 13 8 9 19 11 24 23 21 21 15 26 28 25 22 26 25 27 29 26 36 27 25 37 37 30 27 37 34 34 33 38 32 39 26 26 21 32 24
9 10 10 7 11 14 15 21 21 10 13 26 16 24 27 25 21 22 23 28 30 31 32 29 33 48 42 37 34 34 43 44 34 30 28 32 47 47 35 40 38 20 39
8 11 11 12 12 20 20 20 13 21 21 28 28 28 25 27 22 25 26 27 29 30 32 31 33 47 47 27 44 35 40 30 35 34 39 29 30 66 33 46 44 34 24
11 11 16 10 11 20 25 26 28 24 27 10 29 30 11 25 15 26 26 28 28 30 31 46 42 46 41 29 43 32 46 52 38 30 52 60 31 60 39 46 39 49 25
13 15 18 18 22 18 26 26 17 31 31 32 32 34 33 29 28 24 30 29 34 30 36 36 34 48 42 22 34 36 55 57 68 65 33 29 53 30 40 47 28 34 20
Wind_Direction
64 9 22 21 351 341 355 321 1 313 26 327 40 323 47 347 26 10 34 24 16 355 7 349 351 357 1 28 67 15 17 82 80 43 51 55 49 17 36 45 25 30 54
10 17 356 54 10 13 324 346 19 319 310 323 358 339 10 27 32 24 30 31 20 353 15 353 351 1 356 23 70 13 16 56 72 50 49 40 34 34 40 29 26 37 43
338 11 357 24 339 319 308 334 7 314 321 324 323 323 322 34 348 14 24 36 0 350 0 18 2 359 43 11 67 95 70 75 67 60 50 47 37 34 36 27 33 48 45
323 6 350 328 318 315 323 317 288 311 324 325 331 324 331 329 20 29 357 357 14 21 347 353 12 6 21 50 57 45 76 59 57 59 43 52 47 36 40 37 34 58 39
316 342 325 312 322 310 300 338 327 345 328 318 321 323 341 341 9 6 354 4 24 340 340 345 351 15 19 30 32 41 36 46 50 42 32 46 44 34 34 40 40 68 63
353 315 303 306 311 292 296 320 314 313 351 14 337 328 335 6 349 347 344 31 7 337 341 339 356 21 21 15 26 49 29 21 58 56 38 38 41 35 21 28 48 61 89
311 299 303 298 292 284 308 315 308 328 329 327 333 18 342 3 351 324 325 327 335 341 336 335 2 19 15 35 19 34 45 17 22 53 31 37 27 17 33 34 51 50 73
297 287 292 292 277 303 293 307 320 320 325 316 342 342 332 339 330 327 338 357 360 343 1 354 13 18 13 21 37 24 41 27 7 23 8 25 25 346 15 36 39 34 96
298 292 291 281 320 314 304 319 3 320 328 330 321 324 327 342 336 336 346 348 6 355 352 337 0 2 19 25 12 17 39 23 17 13 29 21 355 274 4 44 46 42 39
285 279 281 300 304 298 308 307 318 319 312 321 324 336 354 358 0 360 5 358 15 4 359 339 342 346 347 350 20 15 14 15 10 345 329 28 294 144 283 49 53 46 31
273 280 286 290 298 301 317 313 312 312 321 336 360 10 22 14 41 39 50 33 36 34 30 26 19 9 351 349 20 24 24 27 344 350 276 300 22 346 214 198 200 118 56
303 270 290 293 302 311 308 324 358 16 17 17 358 17 33 46 53 44 45 38 36 40 25 31 29 19 330 338 8 13 9 26 26 34 303 247 338 8 324 227 197 159 154
287 286 293 304 304 351 31 23 23 36 36 20 22 19 20 32 35 34 50 56 1 46 17 29 21 13 15 10 318 320 10 13 17 11 26 244 247 238 219 209 202 209 179
273 293 297 75 73 72 23 58 26 42 50 33 28 17 18 38 43 12 10 9 16 345 345 347 8 23 9 5 3 331 283 330 255 280 3 299 240 228 265 192 207 221 214
282 120 132 138 140 81 26 26 37 42 57 64 12 51 23 11 7 356 13 20 28 27 20 11 8 354 1 4 356 352 347 346 256 251 4 17 253 245 226 214 260 349 241
128 141 174 16 34 80 65 60 50 34 39 40 32 63 35 9 11 12 340 3 6 6 25 18 6 357 344 345 346 348 6 27 339 336 335 328 343 219 227 219 222 238 219
135 113 85 81 72 72 85 66 57 44 29 56 33 41 5 360 2 351 356 360 346 350 21 5 5 1 356 327 335 353 327 356 18 317 270 249 233 338 215 352 219 234 225
116 97 90 93 85 70 74 51 39 19 27 1 41 23 345 10 349 5 346 344 345 345 358 23 356 353 354 356 4 3 347 323 329 0 354 288 249 231 312 266 220 258 237
103 85 81 78 67 48 71 26 28 28 20 9 8 44 12 7 351 355 24 4 343 349 357 355 346 350 343 347 3 331 344 346 349 309 8 323 298 260 234 302 279 261 258
112 104 85 103 81 51 95 82 85 55 44 49 12 354 26 350 36 328 344 9 11 4 352 340 340 331 342 351 345 351 339 341 340 338 17 2 290 288 262 238 291 233 239
125 101 71 107 57 67 16 65 78 347 1 10 346 340 40 4 337 12 1 327 356 1 350 337 336 351 350 337 347 324 332 333 318 345 335 5 1 298 321 295 246 284 301
95 63 53 59 15 10 259 348 13 320 359 344 338 354 329 328 330 327 331 350 345 344 340 345 347 337 349 345 352 338 328 348 336 334 350 353 347 358 6 348 307 252 282
92 87 166 188 69 27 324 351 346 19 5 355 327 326 323 321 326 314 326 341 343 340 341 338 346 339 342 346 343 335 351 357 330 331 310 328 357 7 6 10 11 327 243
47 18 21 16 30 353 330 333 354 338 359 330 329 326 342 325 317 316 327 325 340 341 339 332 327 334 337 327 351 328 345 335 327 321 349 280 2 351 339 359 14 28 326
237 260 326 255 221 334 343 339 334 329 328 24 325 326 345 333 345 320 327 331 334 338 334 333 333 338 350 315 329 322 347 346 349 315 340 354 288 351 344 346 354 358 3
347 343 316 315 336 341 326 334 351 327 321 327 323 327 324 327 322 334 335 336 329 332 331 344 321 339 336 318 328 339 335 340 335 342 302 317 353 286 338 347 319 341 12